STARLINK-32851, 62810

Orbit data source: Space-Track

STARLINK-32851, 62810 is a payload satellite owned by SpaceX/Seattle (US) in LEO that was launched on Fri, 24 Jan 2025 UTC via an FALCON 9 launch vehicle from the Air Force Western Test Range (AFWTR). Payload-class satellites include a variety of spacecraft equipped with specific instruments for various scientific and technological missions. These include communications satellites like Starlink; space stations such as the ISS; scientific satellites like the Hubble; Earth observation satellites from companies like Planet Labs, Umbra, and HawkEye 360; GPS; miniature CubeSats for education and research; and military/defense satellites.

Loading next visibility...
Identifier
62810, 2025-018E
Orbit
LEO
Last TLE update
9 hours ago
Origin
Manufacturer
SpaceX/Seattle
Mission
Operational Commercial Communications
Bus & Motor
STARLINK V2M, Unknown motor
Mass
730 kg wet, ~700 kg dry
Launch date (UTC)
2025-01-24 (5 months ago)
Launch vehicle
FALCON 9
Launch site
Air Force Western Test Range (AFWTR)
Object type
Payload
Rocket body
Debris
Shape & HBR
Box + 2 Pan, 29 m
Radar Cross Section
33.884 m², Large (>1 m²)

Expand to show TLE details & history

TLE from 9 hours ago
0 STARLINK-32851
1 62810U 25018E   25181.99516805  .00017263  00000-0  59372-3 0  9991
2 62810  53.1607  38.6413 0001019  94.7178 265.3940 15.30194400 25589
Epoch: 2025-06-30T23:53Z
TLE epoch observation values (Epoch: 2025-06-30T23:53:02.519Z)
Latitude
0.00004°
Longitude
121.08386°
Altitude
476.188 km
Speed
7.629 km/s
True Right ascension
02h 34m 33s
True Declination
0° 00' 00"
Sunlit
Object was in daylight at epoch
Visualization orbit readout
Latitude
-6.62028°
Longitude
-55.63145°
Altitude
477.218 km
Speed
7.628 km/s
Apparent Right ascension
12h 12m 37s
Apparent Declination
-32° 10' 13"
Sunlit
Object is in full shadow
Visualization observer readout
Local Sidereal Time
20:10:33
Azimuth
259.164° W
Elevation
-41.39°
Doppler factor
1
Orbital elements
Apogee altitude
476.186 km
Perigee altitude
474.79 km
Semi-major axis
6,853.625 km
Eccentricity
0.0001
Inclination
53.1607°
RAAN
38.6413°
Arg. of periapsis
94.7178°
True anomaly
Unknown
Mean anomaly
265.394°
Eccentric anomaly
Unknown
Mean motion
3.82527 °/min
Orbital period
94.11 mins
BSTAR
0.00059372
Loading maneuver chart data...
Loading SW <> Apogee altitude chart data...
Loading historical data...
Loading historical data...
Loading historical data...
Loading historical data...
Loading historical data...
Loading historical data...
Loading historical data...

STARLINK-32851 Visibility forecast

Observer location: undefined°, undefined°

Span
Click to sort rows by Start time (UTC) header in descending order
Start Az.
Max El. time (UTC)
Max El. Az.
Max El.
End time (UTC)
End Az.
5 mins2025-07-01 17:19:25.459Z234.401° WSW2025-07-01 17:21:25.459Z262.29° W43.684°2025-07-01 17:24:25.459Z47.175° ENE
4 mins2025-07-01 22:16:25.459Z344.619° N2025-07-01 22:18:25.459Z22.058° NNE16.901°2025-07-01 22:20:25.459Z59.083° ENE
5 mins2025-07-01 23:54:25.459Z312.415° NW2025-07-01 23:56:25.459Z329.027° NNW43.437°2025-07-01 23:59:25.459Z127.782° SE
|